"TOA5","MOW","CPU:UNC_MeetingWaters","DataHourly"
"TIMESTAMP","SondeTempC","SpCond","DOSat","DOmg","pH","Turb","BattVolt_Min"
"TS","","","","","","",""
"","Smp","Smp","Smp","Smp","Smp","Smp","Min"
"2007-01-02 13:00:00",-6999.0,0.115000002086,76.5999984741,7.57999992371,7.98000001907,102.300003052,12.5
"2007-01-02 14:00:00",-6999.0,0.115000002086,76.5999984741,7.57999992371,7.98000001907,102.300003052,12.1899995804
"2007-01-02 15:00:00",-6999.0,0.115000002086,76.5999984741,7.57999992371,7.98000001907,102.300003052,11.7700004578
"2007-01-02 16:00:00",-6999.0,0.115000002086,76.5999984741,7.57999992371,7.98000001907,102.300003052,11.6800003052
"2007-01-02 17:00:00",-6999.0,0.115000002086,76.5999984741,7.57999992371,7.98000001907,102.300003052,11.6499996185
"2007-01-02 18:00:00",-6999.0,0.115000002086,76.5999984741,7.57999992371,7.98000001907,102.300003052,11.6300001144
"2007-01-02 19:00:00",-6999.0,0.115000002086,76.5999984741,7.57999992371,7.98000001907,102.300003052,11.6199998856
"2007-01-02 20:00:00",-6999.0,0.115000002086,76.5999984741,7.57999992371,7.98000001907,102.300003052,11.6000003815
"2007-01-02 21:00:00",-6999.0,0.115000002086,76.5999984741,7.57999992371,7.98000001907,102.300003052,11.5799999237
"2007-01-02 22:00:00",-6999.0,0.115000002086,76.5999984741,7.57999992371,7.98000001907,102.300003052,11.5699996948
"2007-01-02 23:00:00",-6999.0,0.115000002086,76.5999984741,7.57999992371,7.98000001907,102.300003052,11.5500001907
"2007-01-03 00:00:00",-6999.0,0.115000002086,76.5999984741,7.57999992371,7.98000001907,102.300003052,11.5399999619
"2007-01-03 01:00:00",-6999.0,0.115000002086,76.5999984741,7.57999992371,7.98000001907,102.300003052,11.5200004578
"2007-01-03 02:00:00",-6999.0,0.115000002086,76.5999984741,7.57999992371,7.98000001907,102.300003052,11.4899997711
"2007-01-03 03:00:00",-6999.0,0.115000002086,76.5999984741,7.57999992371,7.98000001907,102.300003052,11.4799995422
"2007-01-03 13:00:00",-6999.0,0.115000002086,76.5999984741,7.57999992371,7.98000001907,102.300003052,12.4600000381
"2007-01-03 14:00:00",-6999.0,0.115000002086,76.5999984741,7.57999992371,7.98000001907,102.300003052,12.1300001144
"2007-01-03 15:00:00",-6999.0,0.115000002086,76.5999984741,7.57999992371,7.98000001907,102.300003052,11.720000267
"2007-01-03 16:00:00",-6999.0,0.115000002086,76.5999984741,7.57999992371,7.98000001907,102.300003052,11.6499996185
"2007-01-03 17:00:00",-6999.0,0.115000002086,76.5999984741,7.57999992371,7.98000001907,102.300003052,11.6199998856
"2007-01-03 18:00:00",-6999.0,0.115000002086,76.5999984741,7.57999992371,7.98000001907,102.300003052,11.5900001526
"2007-01-03 19:00:00",-6999.0,0.115000002086,76.5999984741,7.57999992371,7.98000001907,102.300003052,11.5699996948
"2007-01-03 20:00:00",-6999.0,0.115000002086,76.5999984741,7.57999992371,7.98000001907,102.300003052,11.5399999619
"2007-01-03 21:00:00",-6999.0,0.115000002086,76.5999984741,7.57999992371,7.98000001907,102.300003052,11.5100002289
"2007-01-03 22:00:00",-6999.0,0.115000002086,76.5999984741,7.57999992371,7.98000001907,102.300003052,11.4799995422
"2007-01-09 13:00:00",-6999.0,0.115000002086,76.5999984741,7.57999992371,7.98000001907,102.300003052,11.9399995804
"2007-01-09 14:00:00",-6999.0,0.115000002086,76.5999984741,7.57999992371,7.98000001907,102.300003052,12.4300003052
"2007-01-09 15:00:00",-6999.0,0.115000002086,76.5999984741,7.57999992371,7.98000001907,102.300003052,11.8100004196
"2007-01-09 16:00:00",-6999.0,0.115000002086,76.5999984741,7.57999992371,7.98000001907,102.300003052,11.7399997711
"2007-01-09 17:00:00",-6999.0,0.115000002086,76.5999984741,7.57999992371,7.98000001907,102.300003052,11.6800003052
"2007-01-09 18:00:00",-6999.0,0.115000002086,76.5999984741,7.57999992371,7.98000001907,102.300003052,11.6499996185
"2007-01-09 19:00:00",-6999.0,0.115000002086,76.5999984741,7.57999992371,7.98000001907,102.300003052,11.6599998474
"2007-01-09 20:00:00",-6999.0,0.115000002086,76.5999984741,7.57999992371,7.98000001907,102.300003052,11.6300001144
"2007-01-09 21:00:00",-6999.0,0.115000002086,76.5999984741,7.57999992371,7.98000001907,102.300003052,11.6400003433
"2007-01-09 22:00:00",-6999.0,0.115000002086,76.5999984741,7.57999992371,7.98000001907,102.300003052,11.6099996567
"2007-01-09 23:00:00",-6999.0,0.115000002086,76.5999984741,7.57999992371,7.98000001907,102.300003052,11.5799999237
"2007-01-10 00:00:00",-6999.0,0.115000002086,76.5999984741,7.57999992371,7.98000001907,102.300003052,11.5900001526
"2007-01-10 01:00:00",-6999.0,0.115000002086,76.5999984741,7.57999992371,7.98000001907,102.300003052,11.5799999237
"2007-01-10 02:00:00",-6999.0,0.115000002086,76.5999984741,7.57999992371,7.98000001907,102.300003052,11.5500001907
"2007-01-10 03:00:00",-6999.0,0.115000002086,76.5999984741,7.57999992371,7.98000001907,102.300003052,11.5399999619
"2007-01-10 04:00:00",-6999.0,0.115000002086,76.5999984741,7.57999992371,7.98000001907,102.300003052,11.529999733
"2007-01-10 05:00:00",-6999.0,0.115000002086,76.5999984741,7.57999992371,7.98000001907,102.300003052,11.5
"2007-01-10 13:00:00",-6999.0,0.115000002086,76.5999984741,7.57999992371,7.98000001907,102.300003052,11.8699998856
"2007-01-10 14:00:00",-6999.0,0.115000002086,76.5999984741,7.57999992371,7.98000001907,102.300003052,12.2100000381
"2007-01-10 15:00:00",-6999.0,0.115000002086,76.5999984741,7.57999992371,7.98000001907,102.300003052,11.8900003433
"2007-01-10 16:00:00",-6999.0,0.115000002086,76.5999984741,7.57999992371,7.98000001907,102.300003052,11.6400003433
"2007-01-10 17:00:00",-6999.0,0.115000002086,76.5999984741,7.57999992371,7.98000001907,102.300003052,11.5600004196
"2007-01-10 18:00:00",-6999.0,0.115000002086,76.5999984741,7.57999992371,7.98000001907,102.300003052,11.5699996948
"2007-01-10 19:00:00",-6999.0,0.115000002086,76.5999984741,7.57999992371,7.98000001907,102.300003052,11.5399999619
"2007-01-11 13:00:00",-6999.0,0.115000002086,76.5999984741,7.57999992371,7.98000001907,102.300003052,12.0799999237
"2007-01-11 14:00:00",-6999.0,0.115000002086,76.5999984741,7.57999992371,7.98000001907,102.300003052,12.279999733
"2007-01-11 15:00:00",-6999.0,0.115000002086,76.5999984741,7.57999992371,7.98000001907,102.300003052,11.9300003052
"2007-01-11 16:00:00",-6999.0,0.115000002086,76.5999984741,7.57999992371,7.98000001907,102.300003052,11.7299995422
"2007-01-11 17:00:00",-6999.0,0.115000002086,76.5999984741,7.57999992371,7.98000001907,102.300003052,11.6999998093
"2007-01-11 18:00:00",-6999.0,0.115000002086,76.5999984741,7.57999992371,7.98000001907,102.300003052,11.6400003433
"2007-01-11 19:00:00",-6999.0,0.115000002086,76.5999984741,7.57999992371,7.98000001907,102.300003052,11.6199998856
"2007-01-11 20:00:00",-6999.0,0.115000002086,76.5999984741,7.57999992371,7.98000001907,102.300003052,11.6000003815
"2007-01-11 21:00:00",-6999.0,0.115000002086,76.5999984741,7.57999992371,7.98000001907,102.300003052,11.5799999237
"2007-01-11 22:00:00",-6999.0,0.115000002086,76.5999984741,7.57999992371,7.98000001907,102.300003052,11.5600004196
"2007-01-11 23:00:00",-6999.0,0.115000002086,76.5999984741,7.57999992371,7.98000001907,102.300003052,11.5100002289
"2007-01-12 00:00:00",-6999.0,0.115000002086,76.5999984741,7.57999992371,7.98000001907,102.300003052,11.4799995422
"2007-01-17 11:00:00",-6999.0,0.115000002086,76.5999984741,7.57999992371,7.98000001907,102.300003052,12.0900001526
"2007-01-17 12:00:00",-6999.0,0.115000002086,76.5999984741,7.57999992371,7.98000001907,102.300003052,12.0799999237
"2007-01-17 13:00:00",-6999.0,0.115000002086,76.5999984741,7.57999992371,7.98000001907,102.300003052,12.4499998093
"2007-01-17 14:00:00",-6999.0,0.115000002086,76.5999984741,7.57999992371,7.98000001907,102.300003052,12.4600000381
"2007-01-17 15:00:00",-6999.0,0.115000002086,76.5999984741,7.57999992371,7.98000001907,102.300003052,12.2100000381
"2007-01-17 16:00:00",-6999.0,0.115000002086,76.5999984741,7.57999992371,7.98000001907,102.300003052,12.1000003815
"2007-01-17 17:00:00",-6999.0,0.115000002086,76.5999984741,7.57999992371,7.98000001907,102.300003052,11.9300003052
"2007-01-17 18:00:00",-6999.0,0.115000002086,76.5999984741,7.57999992371,7.98000001907,102.300003052,11.8500003815
"2007-01-17 19:00:00",-6999.0,0.115000002086,76.5999984741,7.57999992371,7.98000001907,102.300003052,11.8299999237
"2007-01-17 20:00:00",-6999.0,0.115000002086,76.5999984741,7.57999992371,7.98000001907,102.300003052,11.8100004196
"2007-01-17 21:00:00",-6999.0,0.115000002086,76.5999984741,7.57999992371,7.98000001907,102.300003052,11.779999733
"2007-01-17 22:00:00",-6999.0,0.115000002086,76.5999984741,7.57999992371,7.98000001907,102.300003052,11.7700004578
"2007-01-17 23:00:00",-6999.0,0.115000002086,76.5999984741,7.57999992371,7.98000001907,102.300003052,11.75
"2007-01-18 00:00:00",-6999.0,0.115000002086,76.5999984741,7.57999992371,7.98000001907,102.300003052,11.7399997711
"2007-01-18 01:00:00",-6999.0,0.115000002086,76.5999984741,7.57999992371,7.98000001907,102.300003052,11.7299995422
"2007-01-18 02:00:00",-6999.0,0.115000002086,76.5999984741,7.57999992371,7.98000001907,102.300003052,11.720000267
"2007-01-18 03:00:00",-6999.0,0.115000002086,76.5999984741,7.57999992371,7.98000001907,102.300003052,11.7100000381
"2007-01-18 04:00:00",-6999.0,0.115000002086,76.5999984741,7.57999992371,7.98000001907,102.300003052,11.7100000381
"2007-01-18 05:00:00",-6999.0,0.115000002086,76.5999984741,7.57999992371,7.98000001907,102.300003052,11.6899995804
"2007-01-18 06:00:00",-6999.0,0.115000002086,76.5999984741,7.57999992371,7.98000001907,102.300003052,11.6800003052
"2007-01-18 07:00:00",-6999.0,0.115000002086,76.5999984741,7.57999992371,7.98000001907,102.300003052,11.6700000763
"2007-01-18 08:00:00",-6999.0,0.115000002086,76.5999984741,7.57999992371,7.98000001907,102.300003052,11.6700000763
"2007-01-18 09:00:00",-6999.0,0.115000002086,76.5999984741,7.57999992371,7.98000001907,102.300003052,11.6700000763
"2007-01-18 10:00:00",-6999.0,0.115000002086,76.5999984741,7.57999992371,7.98000001907,102.300003052,11.6400003433
"2007-01-18 11:00:00",-6999.0,0.115000002086,76.5999984741,7.57999992371,7.98000001907,102.300003052,11.6400003433
"2007-01-18 12:00:00",-6999.0,0.115000002086,76.5999984741,7.57999992371,7.98000001907,102.300003052,11.6400003433
"2007-01-18 13:00:00",-6999.0,0.115000002086,76.5999984741,7.57999992371,7.98000001907,102.300003052,11.6700000763
"2007-01-18 14:00:00",-6999.0,0.115000002086,76.5999984741,7.57999992371,7.98000001907,102.300003052,11.6499996185
"2007-01-18 15:00:00",-6999.0,0.115000002086,76.5999984741,7.57999992371,7.98000001907,102.300003052,11.6499996185
"2007-01-18 16:00:00",-6999.0,0.115000002086,76.5999984741,7.57999992371,7.98000001907,102.300003052,11.6300001144
"2007-01-18 17:00:00",-6999.0,0.115000002086,76.5999984741,7.57999992371,7.98000001907,102.300003052,11.6199998856
"2007-01-18 18:00:00",-6999.0,0.115000002086,76.5999984741,7.57999992371,7.98000001907,102.300003052,11.6099996567
"2007-01-18 19:00:00",-6999.0,0.115000002086,76.5999984741,7.57999992371,7.98000001907,102.300003052,11.5600004196
"2007-01-18 20:00:00",-6999.0,0.115000002086,76.5999984741,7.57999992371,7.98000001907,102.300003052,11.5900001526
"2007-01-18 21:00:00",-6999.0,0.115000002086,76.5999984741,7.57999992371,7.98000001907,102.300003052,11.5799999237
"2007-01-18 22:00:00",-6999.0,0.115000002086,76.5999984741,7.57999992371,7.98000001907,102.300003052,11.5600004196
"2007-01-18 23:00:00",-6999.0,0.115000002086,76.5999984741,7.57999992371,7.98000001907,102.300003052,11.5100002289
"2007-01-19 00:00:00",-6999.0,0.115000002086,76.5999984741,7.57999992371,7.98000001907,102.300003052,11.5500001907
"2007-01-19 01:00:00",-6999.0,0.115000002086,76.5999984741,7.57999992371,7.98000001907,102.300003052,11.529999733
"2007-01-19 02:00:00",-6999.0,0.115000002086,76.5999984741,7.57999992371,7.98000001907,102.300003052,11.4799995422
"2007-01-19 03:00:00",-6999.0,0.115000002086,76.5999984741,7.57999992371,7.98000001907,102.300003052,11.5100002289
"2007-01-19 04:00:00",-6999.0,0.115000002086,76.5999984741,7.57999992371,7.98000001907,102.300003052,11.5
"2007-01-19 05:00:00",-6999.0,0.115000002086,76.5999984741,7.57999992371,7.98000001907,102.300003052,11.4799995422
"2007-01-19 13:00:00",-6999.0,0.115000002086,76.5999984741,7.57999992371,7.98000001907,102.300003052,12.2399997711
"2007-01-19 14:00:00",-6999.0,0.115000002086,76.5999984741,7.57999992371,7.98000001907,102.300003052,12.1899995804
"2007-01-19 15:00:00",-6999.0,0.115000002086,76.5999984741,7.57999992371,7.98000001907,102.300003052,11.779999733
"2007-01-19 16:00:00",-6999.0,0.115000002086,76.5999984741,7.57999992371,7.98000001907,102.300003052,11.8400001526
"2007-01-19 17:00:00",-6999.0,0.115000002086,76.5999984741,7.57999992371,7.98000001907,102.300003052,11.75
"2007-01-19 18:00:00",-6999.0,0.115000002086,76.5999984741,7.57999992371,7.98000001907,102.300003052,11.7100000381
"2007-01-19 19:00:00",-6999.0,0.115000002086,76.5999984741,7.57999992371,7.98000001907,102.300003052,11.6800003052
"2007-01-19 20:00:00",-6999.0,0.115000002086,76.5999984741,7.57999992371,7.98000001907,102.300003052,11.6599998474
"2007-01-19 21:00:00",-6999.0,0.115000002086,76.5999984741,7.57999992371,7.98000001907,102.300003052,11.6499996185
"2007-01-19 22:00:00",-6999.0,0.115000002086,76.5999984741,7.57999992371,7.98000001907,102.300003052,11.6300001144
"2007-01-19 23:00:00",-6999.0,0.115000002086,76.5999984741,7.57999992371,7.98000001907,102.300003052,11.6099996567
"2007-01-20 00:00:00",-6999.0,0.115000002086,76.5999984741,7.57999992371,7.98000001907,102.300003052,11.5900001526
"2007-01-20 01:00:00",-6999.0,0.115000002086,76.5999984741,7.57999992371,7.98000001907,102.300003052,11.5600004196
"2007-01-20 02:00:00",-6999.0,0.115000002086,76.5999984741,7.57999992371,7.98000001907,102.300003052,11.529999733
"2007-01-20 03:00:00",-6999.0,0.115000002086,76.5999984741,7.57999992371,7.98000001907,102.300003052,11.5100002289
"2007-01-20 04:00:00",-6999.0,0.115000002086,76.5999984741,7.57999992371,7.98000001907,102.300003052,11.4899997711
"2007-01-20 05:00:00",-6999.0,0.115000002086,76.5999984741,7.57999992371,7.98000001907,102.300003052,11.4799995422
"2007-01-20 06:00:00",-6999.0,0.115000002086,76.5999984741,7.57999992371,7.98000001907,102.300003052,11.4600000381
"2007-01-20 13:00:00",-6999.0,0.115000002086,76.5999984741,7.57999992371,7.98000001907,102.300003052,12.5200004578
"2007-01-20 14:00:00",-6999.0,0.115000002086,76.5999984741,7.57999992371,7.98000001907,102.300003052,12.1800003052
"2007-01-20 15:00:00",-6999.0,0.115000002086,76.5999984741,7.57999992371,7.98000001907,102.300003052,11.8800001144
"2007-01-20 16:00:00",-6999.0,0.115000002086,76.5999984741,7.57999992371,7.98000001907,102.300003052,11.8000001907
"2007-01-20 17:00:00",-6999.0,0.115000002086,76.5999984741,7.57999992371,7.98000001907,102.300003052,11.7299995422
"2007-01-20 18:00:00",-6999.0,0.115000002086,76.5999984741,7.57999992371,7.98000001907,102.300003052,11.6899995804
"2007-01-20 19:00:00",-6999.0,0.115000002086,76.5999984741,7.57999992371,7.98000001907,102.300003052,11.6800003052
"2007-01-20 20:00:00",-6999.0,0.115000002086,76.5999984741,7.57999992371,7.98000001907,102.300003052,11.6599998474
"2007-01-20 21:00:00",-6999.0,0.115000002086,76.5999984741,7.57999992371,7.98000001907,102.300003052,11.6400003433
"2007-01-20 22:00:00",-6999.0,0.115000002086,76.5999984741,7.57999992371,7.98000001907,102.300003052,11.6199998856
"2007-01-20 23:00:00",-6999.0,0.115000002086,76.5999984741,7.57999992371,7.98000001907,102.300003052,11.6000003815
"2007-01-21 00:00:00",-6999.0,0.115000002086,76.5999984741,7.57999992371,7.98000001907,102.300003052,11.5799999237
"2007-01-21 01:00:00",-6999.0,0.115000002086,76.5999984741,7.57999992371,7.98000001907,102.300003052,11.5500001907
"2007-01-21 02:00:00",-6999.0,0.115000002086,76.5999984741,7.57999992371,7.98000001907,102.300003052,11.529999733
"2007-01-21 03:00:00",-6999.0,0.115000002086,76.5999984741,7.57999992371,7.98000001907,102.300003052,11.4899997711
"2007-01-21 04:00:00",-6999.0,0.115000002086,76.5999984741,7.57999992371,7.98000001907,102.300003052,11.4799995422
"2007-01-21 05:00:00",-6999.0,0.115000002086,76.5999984741,7.57999992371,7.98000001907,102.300003052,11.4600000381
"2007-01-23 13:00:00",-6999.0,0.115000002086,76.5999984741,7.57999992371,7.98000001907,102.300003052,12.2899999619
"2007-01-23 14:00:00",-6999.0,0.115000002086,76.5999984741,7.57999992371,7.98000001907,102.300003052,12.1400003433
"2007-01-23 15:00:00",-6999.0,0.115000002086,76.5999984741,7.57999992371,7.98000001907,102.300003052,11.9899997711
"2007-01-23 16:00:00",-6999.0,0.115000002086,76.5999984741,7.57999992371,7.98000001907,102.300003052,11.9200000763
"2007-01-23 17:00:00",-6999.0,0.115000002086,76.5999984741,7.57999992371,7.98000001907,102.300003052,11.8100004196
"2007-01-23 18:00:00",-6999.0,0.115000002086,76.5999984741,7.57999992371,7.98000001907,102.300003052,11.7299995422
"2007-01-23 19:00:00",-6999.0,0.115000002086,76.5999984741,7.57999992371,7.98000001907,102.300003052,11.6999998093
"2007-01-23 20:00:00",-6999.0,0.115000002086,76.5999984741,7.57999992371,7.98000001907,102.300003052,11.6800003052
"2007-01-23 21:00:00",-6999.0,0.115000002086,76.5999984741,7.57999992371,7.98000001907,102.300003052,11.6599998474
"2007-01-23 22:00:00",-6999.0,0.115000002086,76.5999984741,7.57999992371,7.98000001907,102.300003052,11.6499996185
"2007-01-23 23:00:00",-6999.0,0.115000002086,76.5999984741,7.57999992371,7.98000001907,102.300003052,11.6400003433
"2007-01-24 00:00:00",-6999.0,0.115000002086,76.5999984741,7.57999992371,7.98000001907,102.300003052,11.6199998856
"2007-01-24 01:00:00",-6999.0,0.115000002086,76.5999984741,7.57999992371,7.98000001907,102.300003052,11.6000003815
"2007-01-24 02:00:00",-6999.0,0.115000002086,76.5999984741,7.57999992371,7.98000001907,102.300003052,11.5799999237
"2007-01-24 03:00:00",-6999.0,0.115000002086,76.5999984741,7.57999992371,7.98000001907,102.300003052,11.5600004196
"2007-01-24 04:00:00",-6999.0,0.115000002086,76.5999984741,7.57999992371,7.98000001907,102.300003052,11.5399999619
"2007-01-24 05:00:00",-6999.0,0.115000002086,76.5999984741,7.57999992371,7.98000001907,102.300003052,11.5200004578
"2007-01-24 06:00:00",-6999.0,0.115000002086,76.5999984741,7.57999992371,7.98000001907,102.300003052,11.4899997711
"2007-01-24 07:00:00",-6999.0,0.115000002086,76.5999984741,7.57999992371,7.98000001907,102.300003052,11.470000267
"2007-01-24 13:00:00",-6999.0,0.115000002086,76.5999984741,7.57999992371,7.98000001907,102.300003052,12.3500003815
"2007-01-24 14:00:00",-6999.0,0.115000002086,76.5999984741,7.57999992371,7.98000001907,102.300003052,12.2100000381
"2007-01-24 15:00:00",-6999.0,0.115000002086,76.5999984741,7.57999992371,7.98000001907,102.300003052,11.9099998474
"2007-01-24 16:00:00",-6999.0,0.115000002086,76.5999984741,7.57999992371,7.98000001907,102.300003052,11.9499998093
"2007-01-24 17:00:00",-6999.0,0.115000002086,76.5999984741,7.57999992371,7.98000001907,102.300003052,11.8100004196
"2007-01-24 18:00:00",-6999.0,0.115000002086,76.5999984741,7.57999992371,7.98000001907,102.300003052,11.7399997711
"2007-01-24 19:00:00",-6999.0,0.115000002086,76.5999984741,7.57999992371,7.98000001907,102.300003052,11.6999998093
"2007-01-24 20:00:00",-6999.0,0.115000002086,76.5999984741,7.57999992371,7.98000001907,102.300003052,11.6999998093
"2007-01-24 21:00:00",-6999.0,0.115000002086,76.5999984741,7.57999992371,7.98000001907,102.300003052,11.6800003052
"2007-01-24 22:00:00",-6999.0,0.115000002086,76.5999984741,7.57999992371,7.98000001907,102.300003052,11.6599998474
"2007-01-24 23:00:00",-6999.0,0.115000002086,76.5999984741,7.57999992371,7.98000001907,102.300003052,11.6400003433
"2007-01-25 00:00:00",-6999.0,0.115000002086,76.5999984741,7.57999992371,7.98000001907,102.300003052,11.6300001144
"2007-01-25 01:00:00",-6999.0,0.115000002086,76.5999984741,7.57999992371,7.98000001907,102.300003052,11.6099996567
"2007-01-25 02:00:00",-6999.0,0.115000002086,76.5999984741,7.57999992371,7.98000001907,102.300003052,11.5900001526
"2007-01-25 03:00:00",-6999.0,0.115000002086,76.5999984741,7.57999992371,7.98000001907,102.300003052,11.5799999237
"2007-01-25 04:00:00",-6999.0,0.115000002086,76.5999984741,7.57999992371,7.98000001907,102.300003052,11.5600004196
"2007-01-25 05:00:00",-6999.0,0.115000002086,76.5999984741,7.57999992371,7.98000001907,102.300003052,11.529999733
"2007-01-25 06:00:00",-6999.0,0.115000002086,76.5999984741,7.57999992371,7.98000001907,102.300003052,11.5100002289
"2007-01-25 07:00:00",-6999.0,0.115000002086,76.5999984741,7.57999992371,7.98000001907,102.300003052,11.4899997711
"2007-01-25 08:00:00",-6999.0,0.115000002086,76.5999984741,7.57999992371,7.98000001907,102.300003052,11.4799995422
"2007-01-25 09:00:00",-6999.0,0.115000002086,76.5999984741,7.57999992371,7.98000001907,102.300003052,11.470000267
"2007-01-25 10:00:00",-6999.0,0.115000002086,76.5999984741,7.57999992371,7.98000001907,102.300003052,11.4799995422
"2007-01-25 11:00:00",-6999.0,0.115000002086,76.5999984741,7.57999992371,7.98000001907,102.300003052,11.8100004196
"2007-01-25 12:00:00",-6999.0,0.115000002086,76.5999984741,7.57999992371,7.98000001907,102.300003052,11.9200000763
"2007-01-25 13:00:00",-6999.0,0.115000002086,76.5999984741,7.57999992371,7.98000001907,102.300003052,12.1099996567
"2007-01-25 14:00:00",-6999.0,0.115000002086,76.5999984741,7.57999992371,7.98000001907,102.300003052,11.8599996567
"2007-01-25 15:00:00",-6999.0,0.115000002086,76.5999984741,7.57999992371,7.98000001907,102.300003052,11.8900003433
"2007-01-25 16:00:00",-6999.0,0.115000002086,76.5999984741,7.57999992371,7.98000001907,102.300003052,11.8999996185
"2007-01-25 17:00:00",-6999.0,0.115000002086,76.5999984741,7.57999992371,7.98000001907,102.300003052,11.6899995804
"2007-01-25 18:00:00",-6999.0,0.115000002086,76.5999984741,7.57999992371,7.98000001907,102.300003052,11.6199998856
"2007-01-25 19:00:00",-6999.0,0.115000002086,76.5999984741,7.57999992371,7.98000001907,102.300003052,11.6199998856
"2007-01-25 20:00:00",-6999.0,0.115000002086,76.5999984741,7.57999992371,7.98000001907,102.300003052,11.6099996567
"2007-01-25 21:00:00",-6999.0,0.115000002086,76.5999984741,7.57999992371,7.98000001907,102.300003052,11.5699996948
"2007-01-25 22:00:00",-6999.0,0.115000002086,76.5999984741,7.57999992371,7.98000001907,102.300003052,11.529999733
"2007-01-25 23:00:00",-6999.0,0.115000002086,76.5999984741,7.57999992371,7.98000001907,102.300003052,11.5
"2007-01-26 00:00:00",-6999.0,0.115000002086,76.5999984741,7.57999992371,7.98000001907,102.300003052,11.4600000381
"2007-01-26 11:00:00",-6999.0,0.115000002086,76.5999984741,7.57999992371,7.98000001907,102.300003052,11.9099998474
"2007-01-26 12:00:00",-6999.0,0.115000002086,76.5999984741,7.57999992371,7.98000001907,102.300003052,11.8800001144
"2007-01-26 13:00:00",-6999.0,0.115000002086,76.5999984741,7.57999992371,7.98000001907,102.300003052,12.779999733
"2007-01-26 14:00:00",-6999.0,0.115000002086,76.5999984741,7.57999992371,7.98000001907,102.300003052,12.1700000763
"2007-01-26 15:00:00",-6999.0,0.115000002086,76.5999984741,7.57999992371,7.98000001907,102.300003052,11.8999996185
"2007-01-26 16:00:00",-6999.0,0.115000002086,76.5999984741,7.57999992371,7.98000001907,102.300003052,11.9499998093
"2007-01-26 17:00:00",-6999.0,0.115000002086,76.5999984741,7.57999992371,7.98000001907,102.300003052,11.779999733
"2007-01-26 18:00:00",-6999.0,0.115000002086,76.5999984741,7.57999992371,7.98000001907,102.300003052,11.7299995422
"2007-01-26 19:00:00",-6999.0,0.115000002086,76.5999984741,7.57999992371,7.98000001907,102.300003052,11.6999998093
"2007-01-26 20:00:00",-6999.0,0.115000002086,76.5999984741,7.57999992371,7.98000001907,102.300003052,11.6800003052
"2007-01-26 21:00:00",-6999.0,0.115000002086,76.5999984741,7.57999992371,7.98000001907,102.300003052,11.6700000763